Weather Roundup
Issued by NWS Chicago, IL

Home | Current Version | Previous Version | Graphics & Text | Print | Product List | Glossary On
Versions: 1 2 3 4 5 6 7 8 9 10 11 12 13 14 15 16 17 18 19 20 21 22 23 24 25 26 27 28 29 30 31 32 33 34 35 36 37 38 39 40 41 42 43 44 45 46 47 48 49 50
000
NZUS59 KLOT 291203
HRRLOT

CHICAGO AREA WEATHER ROUNDUP
NATIONAL WEATHER SERVICE CHICAGO/ROMEOVILLE IL
700 AM CDT FRI APR 29 2016

NOTE: "FAIR" INDICATES FEW OR NO CLOUDS BELOW 12,000 FEET WITH NO
SIGNIFICANT WEATHER AND/OR OBSTRUCTIONS TO VISIBILITY.

* THESE STATIONS ARE NOT UNDER NWS QUALITY CONTROL. THEY ALSO MAY NOT
  REPORT WEATHER SUCH AS PRECIPITATION OR FOG.

ILZ005-006-012>014-019>023-291300-
NORTHEAST ILLINOIS

CITY           SKY/WX    TMP DP  RH WIND       PRES   REMARKS
OHARE          CLOUDY    42  41  96 N12       30.08R FOG
6HR MIN TEMP:  42; 6HR MAX TEMP:  43; 6HR PCP:  0.01;

MIDWAY         CLOUDY    45  41  86 NW10      30.08R FOG
6HR MIN TEMP:  44; 6HR MAX TEMP:  45; 6HR PCP: TRACE;

AURORA         CLOUDY    44  41  89 NW10      30.09R FOG
6HR MIN TEMP:  43; 6HR MAX TEMP:  45;

LANSING*       CLOUDY    45  42  91 W5        30.08R FOG
WAUKEGAN       CLOUDY    41  39  93 N6        30.08R
6HR MIN TEMP:  40; 6HR MAX TEMP:  41; 6HR PCP:  0.01;

DUPAGE AIRPORT CLOUDY    43  39  86 NW8       30.08R
6HR MIN TEMP:  43; 6HR MAX TEMP:  43; 6HR PCP:  0.01;

WHEELING       CLOUDY    41  40  96 N6        30.10R FOG
6HR MIN TEMP:  41; 6HR MAX TEMP:  42; 6HR PCP:  0.01;

MORRIS*        CLOUDY    44  42  90 NW6       30.07F FOG
$$

WIZ051-052-058>065-066-070>072-291300-
SOUTHEAST WISCONSIN

CITY           SKY/WX    TMP DP  RH WIND       PRES   REMARKS
MILWAUKEE      CLOUDY    40  38  93 N6        30.09R
6HR MIN TEMP:  40; 6HR MAX TEMP:  41; 6HR PCP:  0.02;

KENOSHA*       CLOUDY    41  38  89 N7        30.09R
RACINE*        CLOUDY    40  37  89 N9        30.10R
BURLINGTON     CLOUDY    39  38  95 N8        30.09R
WAUKESHA       CLOUDY    37  37 100 N5        30.10R
$$

INZ001>003-010>013-019-020-291300-
NORTHWEST INDIANA

CITY           SKY/WX    TMP DP  RH WIND       PRES   REMARKS
GARY*          CLOUDY    45  45 100 N5        30.08R FOG
MICHIGAN CITY* NOT AVBL
RENSSELAER*    NOT AVBL
VALPARAISO     CLOUDY    43  42  97 NW10      30.06R FOG
$$

LMZ740>746-291300-
SOUTHERN LAKE MICHIGAN

STATION/POSITION TIME  SKY/WX   TEMP WIND        PRES    VSBY
                                AIR  DIR/SP/G
                 (UTC)          (F)  (DEG/KT/KT) (MB)    (MI)
HARRISON CRIB    NOT AVBL
BURNHAM HARBOR   1200            43  330/  8/  9   N/A
CALUMET HARBOR   1100            44  290/  6/  8 1017.0R
BURNS HARBOR     1116            43  310/ 13/ 16 1018.3R
MICHIGAN CITY    NOT AVBL
$$

ABBREVIATIONS USED IN REMARKS
   TC - TEMPERATURE IN CELSIUS
  WCI - WIND CHILL INDEX
   HX - HEAT INDEX
  VSB - VISIBILITY
$$




USA.gov is the U.S. government's official web portal to all federal, state and local government web resources and services.